Location: Carnetin
(48.9010°N, 2.7059°E)
Time: 05:11:19
(UTC+00:00)

USA 229 - Pass Details

Date: 29 May 2022
Orbit: 938 x 1274 km, 63.4° (Epoch: 24 May)

Event Time Altitude Azimuth Distance (km) Brightness Sun altitude
Rises 22:00:57 0° 316° (NW) 3,900 8.1 -15.5°
Reaches altitude 10° 22:03:39 10° 321° (NW) 2,990 7.3 -15.7°
Maximum altitude 22:10:37 50° 37° (NE) 1,472 4.6 -16.2°
Drops below altitude 10° 22:18:04 10° 111° (ESE) 3,199 5.8 -16.7°
Enters shadow 22:18:28 - 112° (ESE) 3,329 5.9 -16.7°
